No identification:



1999 VQ11 

Epoch 1999 Aug. 10.0 TT = JDT 2451400.5                 Nakano

M 342.54859              (2000.0)            P               Q

n   0.20996863     Peri.  352.98660     +0.93941417     -0.33701533

a   2.8034949      Node    26.97114     +0.32082399     +0.80009613

e   0.5945126      Incl.    7.93654     +0.12071860     +0.49625281

P   4.69           H   17.5           G   0.15           U   7

Residuals in seconds of arc 

J99B8  704  1.1-  0.9+    J99BA  402  0.4+  0.2+    J99BJ  402  0.1-  0.3-  

J99B8  704  0.3+  0.4+    J99BA  402  0.0   0.0     J99BQ  046  0.3-  0.0   

J99B8  704  0.6-  1.0+    J99BA  402  0.4+  0.4+    J99BQ  046  0.2-  0.2-  

J99B8  704  0.1-  0.7+    J99BA  595  1.1-  0.0     J99BQ  046  0.4-  0.0   

J99BA  704  0.2+  0.0     J99BA  595  1.2+  0.2-    J99BQ  046  0.0   0.0   

J99BA  704  0.1-  0.1+    J99BA  595  0.8-  1.5-    J99BR  587  0.1+  0.5+  

J99BA  853  0.2+  0.7+    J99BB  719  0.4+  0.8-    J99BR  587  0.1-  0.2+  

J99BA  853  0.1-  0.6+    J99BB  719  0.5-  0.1-    J99C3  360  0.4-  0.2+  

J99BA  853  0.1+  0.6+    J99BB  853  0.3-  0.2+    J99C3  360  0.1-  0.1+  

J99BA  704  0.0   0.0     J99BB  853  0.4-  0.1+    J99C3  360  0.5-  0.0   

J99BA  670  0.0   0.2-    J99BB  853  0.2-  0.1+    J99C6  704  0.8+  0.1+  

J99BA  704  0.3-  0.0     J99BB  719 (3.3+  3.4+)   J99C6  704  1.2+  0.4+  

J99BA  670  1.0+  0.6-    J99BB  719 (2.3+  0.4-)   J99C6  704  0.4+  0.2+  

J99BA  670  0.9-  0.9-    J99BD  402  0.5-  0.0     J99C6  704  0.3-  0.2-  

J99BA  704  0.5-  0.1+    J99BD  402  0.0   0.0     J99C6  704  0.4+  0.0   

J99BA  719  1.9+  0.9+    J99BD  402  0.3-  0.1+    J99C6  704  0.5-  0.3-  

J99BA  670  0.4+  1.4-    J99BE  704  0.2+  0.1+    J99C6  704  0.4+  0.2+  

J99BA  719  1.5-  1.6-    J99BE  704  0.3+  0.0     J99C6  704  0.4-  0.1+  

J99BA  719  0.4-  0.4+    J99BE  704  0.5+  0.2+    J99C6  704  0.2-  0.0   

J99BA  651  0.4+  0.7-    J99BE  704  1.0+  0.3-    J99C8  402  0.0   0.1+  

J99BA  670 (1.4-  2.1-)   J99BE  853  0.4-  0.1+    J99C8  402  0.6-  0.7-  

J99BA  651  1.0+  0.4-    J99BE  853  0.6-  0.1-    J99C8  402  0.1+  0.3-  

J99BA  651  0.6+  0.5-    J99BJ  402  0.6+  0.5+                            

J99BA  402  0.4+  0.4+    J99BJ  402  0.2+  0.4+                            

 

NAKANO

         **** Don't distribute anyone except personal use only ****

                (C) Copyright 1999 OAA/ComputingSection

write mail from CFAD0::NAKANO on 1999-12-11 05:33:50(JST).





1999 VQ11 

Epoch 1999 Nov. 18.0 TT = JDT 2451500.5                 Nakano

M   3.53528              (2000.0)            P               Q

n   0.20935328     Peri.  352.98783     +0.93946779     -0.33686460

a   2.8089857      Node    26.96088     +0.32069066     +0.80011251

e   0.5952637      Incl.    7.94020     +0.12065557     +0.49632874

P   4.71           H   17.8           G   0.15           U   *

Residuals in seconds of arc 

991108 704  1.1-  0.8+    991110 670 (1.4-  2.1-)   991114 704  0.2+  0.1+  

991108 704  0.3+  0.3+    991110 651  1.0+  0.4-    991114 704  0.3+  0.1+  

991108 704  0.6-  0.9+    991110 651  0.6+  0.5-    991114 704  0.5+  0.2+  

991108 704  0.2-  0.7+    991110 402  0.4+  0.4+    991114 704  1.0+  0.2-  

991110 704  0.2+  0.0     991110 402  0.4+  0.2+    991114 853  0.4-  0.2+  

991110 704  0.1-  0.1+    991110 402  0.0   0.0     991114 853  0.6-  0.1-  

991110 853  0.2+  0.7+    991110 402  0.4+  0.4+    991119 402  0.5+  0.5+  

991110 853  0.1-  0.6+    991110 595  1.1-  0.0     991119 402  0.1+  0.3+  

991110 853  0.1+  0.6+    991110 595  1.2+  0.2-    991119 402  0.2-  0.3-  

991110 704  0.0   0.0     991110 595  0.8-  1.5-    991126 046  0.3-  0.1-  

991110 670  0.0   0.2-    991111 719  0.4+  0.8-    991126 046  0.2-  0.3-  

991110 704  0.3-  0.0     991111 719  0.5-  0.1-    991126 046  0.4-  0.0   

991110 670  1.0+  0.6-    991111 853  0.3-  0.3+    991126 046  0.1+  0.1-  

991110 670  0.9-  0.9-    991111 853  0.4-  0.1+    991127 587  0.1+  0.4+  

991110 704  0.5-  0.1+    991111 853  0.2-  0.1+    991127 587  0.1-  0.1+  

991110 719  1.9+  0.9+    991111 719 (3.3+  3.4+)   991203 360  0.0   0.1+  

991110 670  0.4+  1.3-    991111 719 (2.3+  0.3-)   991203 360  0.2+  0.0   

991110 719  1.5-  1.6-    991113 402  0.5-  0.0     991203 360  0.1-  0.0   

991110 719  0.4-  0.4+    991113 402  0.1+  0.1+                            

991110 651  0.4+  0.7-    991113 402  0.3-  0.1+                            

 

NAKANO

         **** Don't distribute anyone except personal use only ****

                (C) Copyright 1999 OAA/ComputingSection

write mail from CFAD0::NAKANO on 1999-12-04 20:12:04(JST).

 





1999 VQ11 

Epoch 1999 Nov. 18.0 TT = JDT 2451500.5                 Nakano

M   3.51200              (2000.0)            P               Q

n   0.20805572     Peri.  352.99393     +0.93957151     -0.33657151

a   2.8206527      Node    26.93730     +0.32043087     +0.80012638

e   0.5968313      Incl.    7.94921     +0.12053814     +0.49650517

P   4.74           H   17.8           G   0.15           U   *

 

NAKANO

         **** Don't distribute anyone except personal use only ****

                (C) Copyright 1999 OAA/ComputingSection

write mail from CFAD0::NAKANO on 1999-11-20 21:48:41(JST).



 

         J99V11Q  J93F51T                                     Nakano



1999 VQ11 = 1993 FT51 

Epoch 1999 Aug. 10.0 TT = JDT 2451400.5                 Nakano

M 339.48092              (2000.0)            P               Q

n   0.24683083     Peri.  353.01550     +0.93492070     -0.34943655

a   2.5169221      Node    27.68800     +0.33166824     +0.79857310

e   0.5518472      Incl.    7.64120     +0.12617237     +0.49007663

P   3.99           H   17.5           G   0.15           U   3

Residuals in seconds of arc 

J933H  809  0.3+  1.6-    J99BA  670  0.9+  0.4-    J99BA  595  0.1+  1.1-  

J933I  809 (7.4+  0.1-)   J99BA  670  0.9-  0.7-    J99BB  719  0.8+  0.4-  

J933K  691  0.6+  0.5+    J99BA  704  0.2-  0.3+    J99BB  719  0.0   0.3+  

J933K  691  0.1-  0.5+    J99BA  719 (2.2+  1.0+)   J99BB  853  0.1+  0.6+  

J933K  691  0.9-  0.4+    J99BA  670  0.5+  1.2-    J99BB  853  0.1+  0.5+  

J99B8  704 (2.1-  0.1+)   J99BA  719  1.1-  1.4-    J99BB  853  0.3+  0.5+  

J99B8  704  0.6-  0.4-    J99BA  719  0.0   0.6+    J99BB  719 (4.1+  3.8+) 

J99B8  704  1.4-  0.2+    J99BA  651  0.9+  0.5-    J99BB  719 (3.1+  0.0 ) 

J99B8  704  0.8-  0.0     J99BA  670  1.0-  1.9-    J99BD  402  0.5-  0.2+  

J99BA  704  0.1+  0.1+    J99BA  651  1.5+  0.3-    J99BD  402  0.0   0.3+  

J99BA  704  0.1-  0.2+    J99BA  651  1.2+  0.4-    J99BD  402  0.3-  0.3+  

J99BA  853  0.1+  0.8+    J99BA  402  0.7+  0.7+    J99BE  704  0.5-  0.0   

J99BA  853  0.2-  0.8+    J99BA  402  0.8+  0.5+    J99BE  704  0.3-  0.0   

J99BA  853  0.0   0.7+    J99BA  402  0.4+  0.3+    J99BE  704  0.0   0.1+  

J99BA  704  0.1+  0.1+    J99BA  402  0.7+  0.7+    J99BE  704  0.6+  0.3-  

J99BA  670  0.1-  0.0     J99BA  595  0.3-  0.5+    J99BE  853  0.7-  0.0   

J99BA  704  0.1-  0.1+    J99BA  595 (2.0+  0.3+)   J99BE  853  0.9-  0.2-  

 

NAKANO

         **** Don't distribute anyone except personal use only ****

                (C) Copyright 1999 OAA/ComputingSection

                 write mail from CFAD0::NAKANO on 1999-11-15 22:55:15(JST).



–ß‚è‚Ü‚·B